User: anonymous   Login
Location: Leiter
(44.7178°N, 106.2687°W)
Time: 10:34:33
(UTC+00:00)
Language:

STARS - Orbit

View from above orbital plane
View from above orbital plane
View from above satellite
View from above satellite

Ground track
Ground track

The orbit data is extracted from the following two-line orbital elements,

1 33498U 09002G   22180.89295985  .00000678  00000-0  96783-4 0  9994
2 33498  98.1680  73.1056 0009874 205.3264 154.7464 14.80019428723272
Epoch (UTC): 29 June 2022 21:25:51
Eccentricity: 0.0009874
inclination: 98.1680°
perigee height: 622 km
apogee height: 636 km
right ascension of ascending node: 73.1056°
argument of perigee: 205.3264°
revolutions per day: 14.80019428
mean anomaly at epoch: 154.7464°
orbit number at epoch: 72327

The dashed part of the orbit path shows where the satellite is in the earth's shadow,  

DLR